Location: Borovka
(49.7741°N, 14.5280°E)
Time: 23:17:51
(UTC+00:00)

QB50P2 - Visible Passes

Search period start: 12 March 2026 00:00
Search period end: 22 March 2026 00:00
Orbit: 519 x 531 km, 98.1° (Epoch: 12 March)

Date Brightness Start Highest point End Pass type
(mag) Time Alt. Az. Time Alt. Az. Time Alt. Az.
12 Mar ? 03:09:57 10° ENE 03:11:56 14° E 03:13:55 10° ESE visible
12 Mar ? 04:42:45 10° N 04:46:30 58° WNW 04:50:13 10° SSW visible
13 Mar ? 02:59:25 10° E 02:59:45 10° E 03:00:05 10° E visible
13 Mar ? 04:30:40 10° NNE 04:34:29 80° WNW 04:38:15 10° SSW visible
14 Mar ? 04:18:36 10° NNE 04:22:25 74° ESE 04:26:12 10° S visible
15 Mar ? 04:06:35 10° NNE 04:10:19 53° E 04:14:01 10° S visible
16 Mar ? 03:54:35 10° NNE 03:58:11 39° E 04:01:44 10° S visible
17 Mar ? 03:42:40 10° NE 03:46:01 29° E 03:49:20 10° SSE visible
18 Mar ? 03:30:48 10° NE 03:33:47 22° E 03:36:45 10° SE visible
19 Mar ? 03:19:05 10° NE 03:21:31 16° E 03:23:58 10° SE visible
20 Mar ? 03:07:40 10° ENE 03:09:14 12° E 03:10:49 10° ESE visible
21 Mar ? 04:27:51 10° NNE 04:31:40 89° E 04:35:28 10° SSW visible
